Location: Franzen
(48.6167°N, 15.3833°E)
Time: 13:55:35
(UTC+00:00)

Meteor 2-21 Rocket - Pass Details

Date: 22 April 2021
Orbit: 935 x 968 km, 82.5° (Epoch: 16 May)

Event Time Altitude Azimuth Distance (km) Brightness Sun altitude
Rises 19:32:47 0° 350° (N) 3,606 8.3 -14.1°
Reaches altitude 10° 19:35:17 10° 352° (N) 2,658 7.5 -14.4°
Maximum altitude 19:41:22 82° 79° (E) 953 4.4 -15.2°
Enters shadow 19:46:19 16° 168° (SSE) 2,237 5.9 -15.8°
